TimeCDT,TemperatureF,Dew PointF,Humidity,Sea Level PressureIn,VisibilityMPH,Wind Direction,Wind SpeedMPH,Gust SpeedMPH,PrecipitationIn,Events,Conditions,WindDirDegrees,DateUTC
12:15 AM,64.4,60.8,88,30.14,10.0,Calm,Calm,-,N/A,,Clear,0,2012-10-13 05:15:00
12:35 AM,64.4,60.8,88,30.13,10.0,SSE,4.6,-,N/A,,Clear,150,2012-10-13 05:35:00
1:15 AM,66.2,60.8,83,30.13,10.0,SSE,3.5,-,N/A,,Clear,150,2012-10-13 06:15:00
1:35 AM,64.4,60.8,88,30.12,10.0,SSE,3.5,-,N/A,,Clear,160,2012-10-13 06:35:00
1:55 AM,64.4,62.6,94,30.12,10.0,SSE,3.5,-,N/A,,Clear,160,2012-10-13 06:55:00
2:15 AM,64.4,62.6,94,30.11,10.0,Calm,Calm,-,N/A,,Clear,0,2012-10-13 07:15:00
2:35 AM,64.4,62.6,94,30.11,7.0,Calm,Calm,-,N/A,,Clear,0,2012-10-13 07:35:00
2:55 AM,64.4,62.6,94,30.10,7.0,South,3.5,-,N/A,,Clear,170,2012-10-13 07:55:00
3:15 AM,64.4,62.6,94,30.09,5.0,South,3.5,-,N/A,,Clear,170,2012-10-13 08:15:00
3:35 AM,64.4,62.6,94,30.08,4.0,SSE,3.5,-,N/A,,Clear,160,2012-10-13 08:35:00
3:55 AM,64.4,62.6,94,30.08,3.0,SSE,3.5,-,N/A,,Clear,150,2012-10-13 08:55:00
4:35 AM,64.4,64.4,100,30.08,3.0,South,4.6,-,N/A,,Scattered Clouds,180,2012-10-13 09:35:00
5:35 AM,68.0,66.2,94,30.10,7.0,South,5.8,-,N/A,,Overcast,190,2012-10-13 10:35:00
5:55 AM,68.0,66.2,94,30.10,7.0,South,4.6,-,N/A,,Mostly Cloudy,190,2012-10-13 10:55:00
6:15 AM,68.0,64.4,88,30.11,5.0,Calm,Calm,-,N/A,,Mostly Cloudy,0,2012-10-13 11:15:00
6:35 AM,68.0,66.2,94,30.11,5.0,South,3.5,-,N/A,,Overcast,190,2012-10-13 11:35:00
6:55 AM,68.0,66.2,94,30.11,5.0,South,3.5,-,N/A,,Overcast,170,2012-10-13 11:55:00
7:15 AM,68.0,66.2,94,30.11,5.0,SSE,3.5,-,N/A,,Overcast,160,2012-10-13 12:15:00
7:55 AM,68.0,66.2,94,30.11,4.0,SSE,3.5,-,N/A,,Overcast,160,2012-10-13 12:55:00
8:15 AM,69.8,68.0,94,30.11,4.0,Calm,Calm,-,N/A,,Overcast,0,2012-10-13 13:15:00
8:35 AM,69.8,68.0,94,30.12,5.0,South,4.6,-,N/A,,Overcast,170,2012-10-13 13:35:00
8:55 AM,71.6,68.0,88,30.12,5.0,South,4.6,-,N/A,,Overcast,170,2012-10-13 13:55:00
9:15 AM,71.6,69.8,94,30.12,7.0,South,3.5,-,N/A,,Overcast,180,2012-10-13 14:15:00
9:35 AM,73.4,69.8,88,30.12,10.0,South,5.8,-,N/A,,Overcast,170,2012-10-13 14:35:00
9:55 AM,73.4,69.8,88,30.13,10.0,South,8.1,-,N/A,,Overcast,180,2012-10-13 14:55:00
10:15 AM,77.0,69.8,78,30.12,10.0,South,9.2,-,N/A,,Mostly Cloudy,180,2012-10-13 15:15:00
11:15 AM,78.8,68.0,69,30.11,10.0,South,12.7,18.4,N/A,,Mostly Cloudy,180,2012-10-13 16:15:00
11:35 AM,80.6,66.2,61,30.10,10.0,South,10.4,17.3,N/A,,Mostly Cloudy,170,2012-10-13 16:35:00
11:55 AM,82.4,64.4,54,30.09,10.0,South,9.2,16.1,N/A,,Mostly Cloudy,180,2012-10-13 16:55:00
12:15 PM,80.6,64.4,58,30.09,10.0,SSW,11.5,16.1,N/A,,Mostly Cloudy,200,2012-10-13 17:15:00
12:35 PM,80.6,64.4,58,30.08,10.0,SSW,11.5,17.3,N/A,,Mostly Cloudy,210,2012-10-13 17:35:00
12:55 PM,80.6,64.4,58,30.07,10.0,South,8.1,-,N/A,,Mostly Cloudy,190,2012-10-13 17:55:00
1:15 PM,82.4,64.4,54,30.06,10.0,South,11.5,-,N/A,,Overcast,170,2012-10-13 18:15:00
1:35 PM,84.2,64.4,51,30.04,10.0,South,11.5,18.4,N/A,,Mostly Cloudy,190,2012-10-13 18:35:00
2:15 PM,82.4,62.6,51,30.01,10.0,South,13.8,19.6,N/A,,Mostly Cloudy,170,2012-10-13 19:15:00
2:35 PM,84.2,62.6,48,29.99,10.0,South,16.1,-,N/A,,Scattered Clouds,170,2012-10-13 19:35:00
2:55 PM,82.4,62.6,51,29.98,10.0,South,12.7,16.1,N/A,,Scattered Clouds,180,2012-10-13 19:55:00
3:15 PM,86.0,60.8,43,29.98,10.0,South,13.8,19.6,N/A,,Scattered Clouds,180,2012-10-13 20:15:00
3:35 PM,86.0,60.8,43,29.97,10.0,South,11.5,21.9,N/A,,Clear,180,2012-10-13 20:35:00
3:55 PM,84.2,60.8,45,29.97,10.0,South,12.7,24.2,N/A,,Scattered Clouds,170,2012-10-13 20:55:00
4:15 PM,86.0,60.8,43,29.98,10.0,South,9.2,-,N/A,,Mostly Cloudy,190,2012-10-13 21:15:00
4:55 PM,84.2,60.8,45,29.95,10.0,South,8.1,-,N/A,,Clear,190,2012-10-13 21:55:00
5:35 PM,80.6,60.8,51,29.93,10.0,South,5.8,-,N/A,,Clear,180,2012-10-13 22:35:00
5:55 PM,82.4,60.8,48,29.93,10.0,South,9.2,-,N/A,,Clear,170,2012-10-13 22:55:00
6:15 PM,80.6,60.8,51,29.91,10.0,South,10.4,17.3,N/A,,Clear,170,2012-10-13 23:15:00
6:35 PM,78.8,60.8,54,29.92,10.0,South,9.2,-,N/A,,Clear,170,2012-10-13 23:35:00
6:55 PM,78.8,60.8,54,29.93,10.0,South,9.2,-,N/A,,Scattered Clouds,170,2012-10-13 23:55:00
7:15 PM,78.8,60.8,54,29.93,10.0,South,9.2,-,N/A,,Scattered Clouds,170,2012-10-14 00:15:00
8:15 PM,77.0,62.6,61,29.94,10.0,South,12.7,20.7,N/A,Rain,Light Rain,180,2012-10-14 01:15:00
8:55 PM,73.4,64.4,73,29.94,10.0,South,4.6,-,N/A,,Scattered Clouds,190,2012-10-14 01:55:00
9:35 PM,73.4,64.4,73,29.94,10.0,South,10.4,18.4,N/A,,Clear,180,2012-10-14 02:35:00
9:55 PM,73.4,64.4,73,29.94,10.0,South,12.7,19.6,N/A,,Clear,190,2012-10-14 02:55:00
10:15 PM,73.4,64.4,73,29.94,10.0,South,13.8,19.6,N/A,,Clear,170,2012-10-14 03:15:00
10:55 PM,73.4,64.4,73,29.93,10.0,South,13.8,21.9,0.01,,Scattered Clouds,180,2012-10-14 03:55:00
11:15 PM,73.4,64.4,73,-9999,10.0,SSW,9.2,23.0,N/A,,Scattered Clouds,200,2012-10-14 04:15:00
11:35 PM,73.4,64.4,73,29.94,10.0,South,15.0,20.7,N/A,,Mostly Cloudy,190,2012-10-14 04:35:00